Weather History for White Plains, NY

Change the Weather History Date:

Wednesday, August 13, 2014

  Actual Average Record
Temperature  
Mean Temperature 71 °F -  
Max Temperature 79 °F 80 °F 93 °F (1988)
Min Temperature 64 °F 63 °F 52 °F (1979)
Cooling Degree Days 6    
Growing Degree Days 21 (Base 50)    
Moisture  
Dew Point 66 °F    
Average Humidity 87    
Maximum Humidity 97    
Minimum Humidity 66    
Precipitation  
Precipitation 0.96 in - - ()
Sea Level Pressure  
Sea Level Pressure 29.71 in    
Wind  
Wind Speed 11 mph (NNE)    
Max Wind Speed 18 mph    
Max Gust Speed 33 mph    
Visibility 6 miles    
Events Rain    
Averages and records for this station are not official NWS values.
T = Trace of Precipitation, MM = Missing Value Source: NWS Daily Summary

Daily Weather History Graph

Daily Weather History Graph

Search for Another Location

Airport:

Trip Planner

Search our weather history database for the weather conditions in past years. The results will help you decide how hot, cold, wet, or windy it might be!

Date:

Astronomy

Aug. 13, 2014 Rise Set
Actual Time 6:02 AM EDT 7:56 PM EDT
Civil Twilight 5:32 AM EDT 8:25 PM EDT
Nautical Twilight 4:56 AM EDT 9:01 PM EDT
Astronomical Twilight 4:17 AM EDT 9:40 PM EDT
Moon 9:37 PM EDT (8/13) 9:29 AM EDT (8/13)
Length of Visible Light 14h 53m
Length of Day
13h 53m
Waning Gibbous, 88% of the Moon is Illuminated
Aug 13
Waning Gibbous
Aug 17
Last Quarter
Aug 25
New
Sep 2
First Quarter
Sep 8
Full

Hourly Weather History & Observations

Time (EDT) Temp. Dew Point Humidity Pressure Visibility Wind Dir Wind Speed Gust Speed Precip Events Conditions
12:56 AM 66.9 °F 63.0 °F 87% 29.87 in 10.0 mi East 6.9 mph - 0.00 in   Overcast
1:56 AM 66.9 °F 64.9 °F 93% 29.84 in 3.0 mi ESE 12.7 mph - 0.20 in Rain Heavy Rain
2:30 AM 66.2 °F 64.4 °F 94% 29.84 in 3.0 mi ESE 18.4 mph 33.4 mph 0.21 in Rain Rain
2:56 AM 66.9 °F 64.9 °F 93% 29.82 in 3.0 mi ESE 15.0 mph 21.9 mph 0.31 in Rain Rain
3:56 AM 64.9 °F 63.0 °F 93% 29.75 in 4.0 mi East 13.8 mph 25.3 mph 0.16 in Rain Light Rain
4:56 AM 66.0 °F 64.9 °F 96% 29.76 in 8.0 mi ESE 16.1 mph 27.6 mph 0.04 in   Overcast
5:56 AM 68.0 °F 66.0 °F 93% 29.74 in 4.0 mi ESE 16.1 mph 24.2 mph 0.05 in Rain Light Rain
6:39 AM 68.0 °F 66.2 °F 94% 29.73 in 8.0 mi East 11.5 mph 20.7 mph 0.01 in Rain Light Rain
6:56 AM 68.0 °F 64.9 °F 90% 29.72 in 2.5 mi East 15.0 mph 21.9 mph 0.01 in Rain Light Rain
7:56 AM 68.0 °F 66.0 °F 93% 29.70 in 2.5 mi East 10.4 mph 20.7 mph 0.03 in Rain Light Rain
8:56 AM 68.0 °F 66.9 °F 96% 29.68 in 2.5 mi East 8.1 mph 17.3 mph 0.07 in Rain Light Rain
9:56 AM 70.0 °F 69.1 °F 97% 29.67 in 2.5 mi NNE 4.6 mph - 0.05 in Rain Light Rain
10:21 AM 69.8 °F 68.0 °F 94% 29.68 in 1.5 mi NW 8.1 mph - 0.02 in Rain Light Rain
10:56 AM 69.8 °F 68.0 °F 94% 29.68 in 1.5 mi NNW 10.4 mph - N/A Rain Light Rain
11:45 AM 71.6 °F 68.0 °F 88% 29.68 in 9.0 mi NNW 11.5 mph - 0.01 in   Mostly Cloudy
11:56 AM 73.9 °F 69.1 °F 85% 29.67 in 8.0 mi NNW 12.7 mph - 0.01 in   Mostly Cloudy
12:56 PM 73.4 °F 68.0 °F 83% 29.68 in 8.0 mi NW 11.5 mph - N/A   Mostly Cloudy
1:03 PM 73.4 °F 68.0 °F 83% 29.68 in 9.0 mi NW 9.2 mph - 0.00 in   Mostly Cloudy
1:56 PM 75.0 °F 66.9 °F 76% 29.66 in 10.0 mi WNW 16.1 mph - 0.00 in   Mostly Cloudy
2:56 PM 75.9 °F 68.0 °F 76% 29.66 in 10.0 mi WNW 11.5 mph - N/A   Mostly Cloudy
3:56 PM 78.1 °F 66.0 °F 66% 29.65 in 10.0 mi WNW 10.4 mph - N/A   Scattered Clouds
4:56 PM 77.0 °F 66.0 °F 69% 29.65 in 10.0 mi WNW 8.1 mph - N/A   Scattered Clouds
5:56 PM 77.0 °F 64.9 °F 66% 29.65 in 10.0 mi WNW 5.8 mph - N/A   Scattered Clouds
6:56 PM 69.1 °F 64.9 °F 87% 29.67 in 10.0 mi Calm Calm - 0.03 in   Mostly Cloudy
8:56 PM 69.8 °F 62.6 °F 78% 29.73 in 10.0 mi WNW 4.6 mph - N/A   Clear